KR0L-13 Weather Reports


Display with metric or nautical units.
time (UTC)temp
F
wind
direction
speed
MPH
gust
MPH
rain 1hr
in
rain 24hr
in
rain mn
in
humidity
%
barometer
mb
20260505073021 57 0 13.0 21.0 0.00 0.00 0.00 63 1005.9
20260505072021 57 338 13.0 18.0 0.00 0.00 0.00 67 1005.8
20260505071021 57 0 14.0 23.0 0.00 0.00 0.00 69 1005.6
20260505070021 57 338 14.0 22.0 0.00 0.00 0.00 69 1005.1
20260505065021 57 338 11.0 18.0 0.00 0.00 0.00 71 1005.2
20260505064021 57 338 12.0 18.0 0.00 0.00 0.00 74 1005.0
20260505063021 57 338 10.0 15.0 0.00 0.00 0.00 75 1004.4
20260505062021 57 338 10.0 19.0 0.00 0.00 0.00 77 1004.1
20260505061021 57 338 9.0 14.0 0.00 0.00 0.00 79 1004.2
20260505060021 58 338 8.0 13.0 0.00 0.00 0.00 80 1004.0
20260505055021 58 338 8.0 13.0 0.00 0.00 0.00 81 1003.7
20260505054021 58 338 7.0 12.0 0.00 0.00 0.00 80 1003.9
20260505053021 59 338 8.0 14.0 0.00 0.00 0.00 79 1004.1
20260505052021 59 338 7.0 13.0 0.00 0.00 0.00 77 1004.0
20260505051021 61 338 5.0 11.0 0.00 0.00 0.00 74 1003.9
20260505041021 71 86 0.0 0.0 0.00 0.00 0.00 68 1003.6
20260505040021 71 90 2.0 5.0 0.00 0.00 0.00 67 1003.3
20260505035021 72 113 5.0 10.0 0.00 0.00 0.00 66 1003.4
20260505034021 73 158 5.0 18.0 0.00 0.00 0.00 62 1003.0
20260505033021 72 180 7.0 13.0 0.00 0.00 0.00 63 1003.2
20260505032021 72 113 7.0 10.0 0.00 0.00 0.00 62 1002.7
20260505031021 72 90 5.0 8.0 0.00 0.00 0.00 60 1002.5
20260505030021 72 90 6.0 11.0 0.00 0.00 0.00 60 1002.4
20260505025021 73 90 6.0 9.0 0.00 0.00 0.00 59 1002.7
20260505024021 73 113 6.0 10.0 0.00 0.00 0.00 58 1002.7
20260505023021 73 135 4.0 6.0 0.00 0.00 0.00 57 1002.6
20260505022021 74 90 7.0 11.0 0.00 0.00 0.00 56 1002.2
20260505021021 74 113 8.0 11.0 0.00 0.00 0.00 56 1002.2
20260505020021 74 113 5.0 8.0 0.00 0.00 0.00 55 1001.9
20260505015021 74 90 6.0 9.0 0.00 0.00 0.00 54 1001.6
20260505014021 74 90 6.0 9.0 0.00 0.00 0.00 53 1001.3
20260505013021 75 90 5.0 7.0 0.00 0.00 0.00 52 1001.1
20260505012021 75 113 5.0 9.0 0.00 0.00 0.00 51 1001.0
20260505011021 76 113 5.0 8.0 0.00 0.00 0.00 50 1001.0
20260505010021 77 113 5.0 9.0 0.00 0.00 0.00 48 1000.9
20260505005021 78 90 8.0 11.0 0.00 0.00 0.00 47 1000.7
20260505004021 78 90 7.0 12.0 0.00 0.00 0.00 46 1000.6
20260505003021 79 113 9.0 15.0 0.00 0.00 0.00 45 1000.6
20260505002021 80 113 11.0 15.0 0.00 0.00 0.00 43 1000.9
20260505001021 81 113 11.0 19.0 0.00 0.00 0.00 42 1000.9
20260505000021 82 135 9.0 16.0 0.00 0.00 0.00 41 1001.0
20260504235021 83 113 11.0 18.0 0.00 0.00 0.00 40 1001.0
20260504234021 84 113 13.0 19.0 0.00 0.00 0.00 39 1001.0
20260504233020 84 113 12.0 19.0 0.00 0.00 0.00 38 1001.1
20260504232021 85 135 10.0 17.0 0.00 0.00 0.00 36 1001.2
20260504231021 87 135 9.0 15.0 0.00 0.00 0.00 34 1001.2
20260504230020 88 135 6.0 13.0 0.00 0.00 0.00 30 1001.2
20260504225020 88 158 4.0 8.0 0.00 0.00 0.00 31 1001.2
20260504224021 87 135 4.0 8.0 0.00 0.00 0.00 31 1001.3
20260504223020 87 135 3.0 6.0 0.00 0.00 0.00 32 1001.4
20260504222020 86 68 5.0 9.0 0.00 0.00 0.00 31 1001.4
20260504221020 86 68 5.0 11.0 0.00 0.00 0.00 30 1001.4
20260504220020 86 135 4.0 8.0 0.00 0.00 0.00 29 1001.4
20260504215021 84 90 0.0 6.0 0.00 0.00 0.00 32 1001.5
20260504214020 83 68 4.0 7.0 0.00 0.00 0.00 33 1001.7
20260504213021 83 68 4.0 8.0 0.00 0.00 0.00 30 1001.7
20260504212020 84 68 6.0 10.0 0.00 0.00 0.00 30 1002.0
20260504211020 84 90 6.0 11.0 0.00 0.00 0.00 29 1002.1
20260504210020 85 90 8.0 13.0 0.00 0.00 0.00 27 1002.4
20260504205020 85 68 7.0 14.0 0.00 0.00 0.00 28 1002.4
20260504204020 84 135 5.0 9.0 0.00 0.00 0.00 31 1002.5
20260504203020 86 90 8.0 12.0 0.00 0.00 0.00 30 1002.8
20260504202020 87 90 7.0 15.0 0.00 0.00 0.00 30 1002.9
20260504201020 86 135 6.0 11.0 0.00 0.00 0.00 26 1003.0
20260504200020 86 90 6.0 11.0 0.00 0.00 0.00 26 1003.2
20260504195020 86 90 6.0 11.0 0.00 0.00 0.00 28 1003.4
20260504194020 85 68 3.0 10.0 0.00 0.00 0.00 28 1003.5
20260504193020 85 23 3.0 6.0 0.00 0.00 0.00 27 1003.6
20260504192020 85 135 4.0 10.0 0.00 0.00 0.00 27 1003.7
20260504191020 85 90 5.0 9.0 0.00 0.00 0.00 28 1003.8
20260504190020 85 90 5.0 9.0 0.00 0.00 0.00 30 1004.0
20260504185020 85 158 2.0 5.0 0.00 0.00 0.00 30 1004.0
20260504184020 83 158 2.0 7.0 0.00 0.00 0.00 30 1004.1
20260504183020 82 203 2.0 5.0 0.00 0.00 0.00 33 1004.2
20260504182020 81 158 2.0 5.0 0.00 0.00 0.00 34 1004.3
20260504181020 80 158 2.0 5.0 0.00 0.00 0.00 36 1004.2
20260504180020 80 158 4.0 6.0 0.00 0.00 0.00 35 1004.4
20260504175020 80 158 5.0 10.0 0.00 0.00 0.00 36 1004.4
20260504174020 80 158 5.0 9.0 0.00 0.00 0.00 38 1004.4
20260504173020 80 180 2.0 6.0 0.00 0.00 0.00 36 1004.5
20260504172020 79 180 5.0 8.0 0.00 0.00 0.00 37 1004.6
20260504171020 79 158 6.0 14.0 0.00 0.00 0.00 38 1004.5
20260504151022 71 158 10.0 15.0 0.00 0.00 0.00 49 1004.2
20260504141022 68 158 8.0 13.0 0.00 0.00 0.00 52 1004.1
20260504081021 66 135 7.0 13.0 0.00 0.00 0.00 48 1006.0